Harrisburg, IL

7:52 AM CST on November 24, 2017 (GMT -0600)
Harrisburg-Raleigh

Weather History for KHSB - March, 2014

Change the Weather History Date:

Sunday, March 30, 2014

  Actual Average (KMWA) Record (KMWA)
Temperature  
Mean Temperature 44 °F -  
Max Temperature 60 °F 59 °F 82 °F (1986)
Min Temperature 27 °F 40 °F 23 °F (1972)
Degree Days  
Heating Degree Days 22    
Moisture  
Dew Point 34 °F    
Average Humidity 73    
Maximum Humidity 100    
Minimum Humidity 31    
Precipitation  
Precipitation 0.00 in - - ()
Sea Level Pressure  
Sea Level Pressure 30.24 in    
Wind  
Wind Speed 2 mph (ENE)    
Max Wind Speed 8 mph    
Max Gust Speed -    
Visibility 8 miles    
Events Fog    
Averages and records for this station are not official NWS values.
T = Trace of Precipitation, MM = Missing Value Source: NWS Daily Summary

Daily Weather History Graph

Daily Weather History Graph

Search for Another Location

Airport or City:

Trip Planner

Search our weather history database for the weather conditions in past years. The results will help you decide how hot, cold, wet, or windy it might be!

Date:

Astronomy

Mar. 30, 2014 Rise Set
Actual Time 6:42 AM CDT 7:15 PM CDT
Civil Twilight 6:16 AM CDT 7:41 PM CDT
Nautical Twilight 5:45 AM CDT 8:12 PM CDT
Astronomical Twilight 5:13 AM CDT 8:44 PM CDT
Moon 6:28 AM CDT (3/30) 7:27 PM CDT (3/30)
Length of Visible Light 13h 25m
Length of Day
12h 32m
Waning Crescent, 0% of the Moon is Illuminated
Mar 30
Waning Crescent
Mar 30
New
Apr 7
First Quarter
Apr 15
Full
Apr 22
Last Quarter

Hourly Weather History & Observations

Time (CDT) Temp. Windchill Dew Point Humidity Pressure Visibility Wind Dir Wind Speed Gust Speed Precip Events Conditions
12:15 AM 37.4 °F 34.9 °F 33.8 °F 87% 30.27 in 7.0 mi North 3.5 mph - N/A   Clear
12:35 AM 35.8 °F 33.0 °F 32.5 °F 88% 30.27 in 7.0 mi NNW 3.5 mph - N/A   Clear
12:55 AM 35.6 °F 32.8 °F 32.5 °F 89% 30.27 in 7.0 mi NW 3.5 mph - N/A   Clear
1:15 AM 35.2 °F 32.4 °F 32.4 °F 89% 30.28 in 7.0 mi NW 3.5 mph - N/A   Clear
1:35 AM 33.3 °F 30.2 °F 31.8 °F 94% 30.28 in 5.0 mi NW 3.5 mph - N/A   Clear
1:55 AM 34.9 °F - 33.4 °F 94% 30.28 in 7.0 mi Calm Calm - N/A   Clear
2:15 AM 33.4 °F 30.4 °F 32.0 °F 94% 30.28 in 5.0 mi NW 3.5 mph - N/A   Clear
2:35 AM 32.7 °F 28.3 °F 32.0 °F 97% 30.29 in 5.0 mi NW 4.6 mph - N/A   Clear
2:55 AM 32.5 °F - 32.0 °F 98% 30.29 in 5.0 mi Calm Calm - N/A   Clear
3:15 AM 32.2 °F 28.9 °F 32.0 °F 99% 30.30 in 5.0 mi WNW 3.5 mph - N/A   Clear
3:35 AM 32.0 °F 27.5 °F 32.0 °F 100% 30.29 in 4.0 mi WNW 4.6 mph - N/A   Clear
3:55 AM 32.0 °F - 32.0 °F 100% 30.29 in 3.0 mi Calm Calm - N/A   Clear
4:15 AM 32.4 °F - 32.4 °F 100% 30.27 in 3.0 mi Calm Calm - N/A   Clear
4:35 AM 32.5 °F - 32.5 °F 100% 30.27 in 3.0 mi Calm Calm - N/A   Clear
4:55 AM 32.2 °F - 32.2 °F 100% 30.27 in 3.0 mi Calm Calm - N/A   Clear
5:15 AM 29.5 °F - 29.5 °F 100% 30.26 in 3.0 mi Calm Calm - N/A   Clear
5:35 AM 28.6 °F - 28.6 °F 100% 30.27 in 0.5 mi Calm Calm - N/A Fog Light Freezing Fog
5:55 AM 30.0 °F - 30.0 °F 100% 30.28 in 0.8 mi Calm Calm - N/A   Mist
6:15 AM 28.2 °F - 28.2 °F 100% 30.28 in 0.5 mi Calm Calm - N/A Fog Light Freezing Fog
6:35 AM 27.9 °F - 27.9 °F 100% 30.28 in 0.2 mi Calm Calm - N/A Fog Light Freezing Fog
6:55 AM 29.7 °F - 29.7 °F 100% 30.29 in 0.2 mi Calm Calm - N/A Fog Light Freezing Fog
7:15 AM 30.2 °F - 30.2 °F 100% 30.29 in 0.8 mi Calm Calm - N/A   Mist
7:35 AM 30.4 °F - 30.4 °F 100% 30.29 in 1.0 mi Calm Calm - N/A   Mist
7:55 AM 32.2 °F - 32.2 °F 100% 30.29 in 1.5 mi Calm Calm - N/A   Mist
8:15 AM 34.2 °F - 34.2 °F 100% 30.30 in 4.0 mi Calm Calm - N/A   Clear
8:35 AM 36.1 °F 32.3 °F 36.1 °F 100% 30.30 in 7.0 mi NE 4.6 mph - N/A   Clear
8:55 AM 37.9 °F 34.4 °F 34.0 °F 86% 30.31 in 10.0 mi NNE 4.6 mph - N/A   Clear
9:15 AM 39.0 °F 34.8 °F 31.8 °F 75% 30.31 in 10.0 mi NE 5.8 mph - N/A   Clear
9:35 AM 39.6 °F 37.4 °F 31.3 °F 72% 30.32 in 10.0 mi NNE 3.5 mph - N/A   Clear
9:55 AM 40.3 °F 38.2 °F 31.8 °F 72% 30.32 in 10.0 mi NE 3.5 mph - N/A   Clear
10:15 AM 41.4 °F 39.4 °F 31.1 °F 67% 30.33 in 10.0 mi NNW 3.5 mph - N/A   Clear
10:35 AM 42.6 °F 40.9 °F 31.1 °F 64% 30.33 in 10.0 mi ENE 3.5 mph - N/A   Clear
10:55 AM 44.1 °F 42.5 °F 32.5 °F 64% 30.32 in 10.0 mi ENE 3.5 mph - N/A   Clear
11:15 AM 44.4 °F 42.9 °F 32.2 °F 62% 30.31 in 10.0 mi ESE 3.5 mph - N/A   Clear
11:35 AM 44.6 °F 42.2 °F 33.6 °F 65% 30.31 in 10.0 mi SE 4.6 mph - N/A   Clear
11:55 AM 46.2 °F 45.0 °F 34.5 °F 64% 30.31 in 10.0 mi SSW 3.5 mph - N/A   Clear
12:15 PM 46.9 °F - 31.5 °F 55% 30.30 in 10.0 mi Calm Calm - N/A   Clear
12:35 PM 48.7 °F - 34.2 °F 57% 30.29 in 10.0 mi Calm Calm - N/A   Clear
12:55 PM 48.7 °F - 32.4 °F 53% 30.27 in 10.0 mi Calm Calm - N/A   Clear
1:15 PM 50.4 °F - 32.2 °F 50% 30.26 in 10.0 mi Calm Calm - N/A   Clear
1:35 PM 50.7 °F - 32.5 °F 50% 30.24 in 10.0 mi ENE 3.5 mph - N/A   Clear
1:55 PM 51.1 °F - 33.4 °F 51% 30.23 in 10.0 mi ESE 4.6 mph - N/A   Clear
2:15 PM 52.7 °F - 35.4 °F 52% 30.22 in 10.0 mi Calm Calm - N/A   Clear
2:35 PM 53.6 °F - 34.0 °F 47% 30.22 in 10.0 mi Calm Calm - N/A   Clear
2:55 PM 55.2 °F - 33.3 °F 43% 30.20 in 10.0 mi Calm Calm - N/A   Clear
3:15 PM 57.0 °F - 32.9 °F 40% 30.19 in 10.0 mi Calm Calm - N/A   Clear
3:35 PM 57.2 °F - 30.4 °F 36% 30.18 in 10.0 mi Calm Calm - N/A   Clear
3:55 PM 58.5 °F - 29.5 °F 33% 30.18 in 10.0 mi Calm Calm - N/A   Clear
4:15 PM 58.6 °F - 28.4 °F 32% 30.17 in 10.0 mi Calm Calm - N/A   Clear
4:35 PM 59.2 °F - 29.1 °F 32% 30.17 in 10.0 mi Calm Calm - N/A   Clear
4:55 PM 59.9 °F - 29.3 °F 31% 30.16 in 10.0 mi Calm Calm - N/A   Clear
5:15 PM 59.9 °F - 29.5 °F 32% 30.16 in 10.0 mi Calm Calm - N/A   Clear
5:35 PM 60.4 °F - 30.2 °F 32% 30.15 in 10.0 mi Calm Calm - N/A   Clear
5:55 PM 59.4 °F - 35.1 °F 40% 30.15 in 10.0 mi ESE 8.1 mph - N/A   Clear
6:15 PM 59.2 °F - 35.4 °F 41% 30.15 in 10.0 mi ESE 4.6 mph - N/A   Clear
6:35 PM 57.6 °F - 37.6 °F 47% 30.15 in 10.0 mi ESE 5.8 mph - N/A   Clear
6:55 PM 54.7 °F - 39.0 °F 56% 30.14 in 10.0 mi ESE 4.6 mph - N/A   Clear
7:15 PM 53.4 °F - 38.7 °F 57% 30.14 in 10.0 mi ESE 8.1 mph - N/A   Clear
7:35 PM 51.6 °F - 39.7 °F 64% 30.15 in 10.0 mi ESE 6.9 mph - N/A   Clear
7:55 PM 51.3 °F - 39.4 °F 64% 30.15 in 10.0 mi SE 3.5 mph - N/A   Clear
8:15 PM 50.5 °F - 41.0 °F 70% 30.15 in 10.0 mi SSE 3.5 mph - N/A   Clear
8:35 PM 47.8 °F - 41.0 °F 77% 30.15 in 10.0 mi Calm Calm - N/A   Clear
8:55 PM 48.2 °F - 40.5 °F 75% 30.16 in 10.0 mi SE 3.5 mph - N/A   Clear
9:15 PM 46.8 °F - 39.7 °F 77% 30.15 in 10.0 mi East 3.5 mph - N/A   Clear
9:35 PM 46.0 °F 44.8 °F 39.2 °F 77% 30.15 in 10.0 mi East 3.5 mph - N/A   Clear
9:55 PM 44.6 °F - 38.8 °F 80% 30.15 in 10.0 mi Calm Calm - N/A   Clear
10:15 PM 43.7 °F - 37.8 °F 80% 30.15 in 10.0 mi Calm Calm - N/A   Clear
10:35 PM 41.5 °F - 37.2 °F 85% 30.15 in 10.0 mi Calm Calm - N/A   Clear
10:55 PM 42.3 °F - 36.3 °F 79% 30.15 in 10.0 mi Calm Calm - N/A   Clear
11:15 PM 40.6 °F 38.6 °F 36.9 °F 86% 30.14 in 10.0 mi ESE 3.5 mph - N/A   Clear
11:35 PM 39.6 °F - 37.8 °F 93% 30.15 in 10.0 mi Calm Calm - N/A   Clear
11:55 PM 41.7 °F - 37.8 °F 86% 30.15 in 10.0 mi Calm Calm - N/A   Clear